Location: Monroe
(41.9160°N, 83.3980°W)
Time: 20:33:14
(UTC-04:00)

Amateur Radio Satellites - All Passes

Search period start: 30 August 2015 20:03
Search period end: 31 August 2015 20:03
Location: Monroe, 41.9160°N, 83.3980°W

Satellite Date Start Highest point End Downlink Frequencies (MHz)
Time Altitude Azimuth
Cosmos 2491 30 Aug 20:06:57 20:14:29 32° 68° (ENE) 20:22:12 435.465 / 435.565
CUTE 1.7 + AOD 2 30 Aug 20:07:33 20:09:49 15° 65° (ENE) 20:12:16 437.475
CANX-2 30 Aug 20:20:14 20:23:30 22° 68° (ENE) 20:26:50 2200.000
YUBILEINY 30 Aug 20:20:21 20:23:57 14° 76° (ENE) 20:28:13 435.215
DOVE 4 30 Aug 20:21:13 20:25:12 30° 68° (ENE) 20:29:29 437.250
STRAND 1 30 Aug 20:22:02 20:26:59 48° 99° (E) 20:31:56 437.568
PRISM 30 Aug 20:30:52 20:34:45 40° 98° (E) 20:38:39 437.425
AIST 1 30 Aug 20:37:48 20:42:05 62° 265° (W) 20:46:21
SEEDS 30 Aug 20:43:47 20:47:22 27° 70° (ENE) 20:51:00 437.485
O/OREOS (USA 219) 30 Aug 20:47:41 20:52:05 49° 297° (WNW) 20:56:33 437.305
Cubesat XI-IV 30 Aug 20:48:32 20:49:55 11° 274° (W) 20:50:55 437.490
HO-68 30 Aug 20:53:46 21:00:50 67° 70° (ENE) 21:07:59 435.675
BRITE-PL 30 Aug 21:03:23 21:07:22 35° 265° (W) 21:11:35 437.365/2234.400
CUBESAT XI-V 30 Aug 21:06:59 21:09:57 17° 295° (WNW) 21:12:45 437.345
COMPASS 1 30 Aug 21:07:35 21:11:29 38° 72° (ENE) 21:15:25 437.405
CINEMA 3 30 Aug 21:15:59 21:20:27 48° 72° (ENE) 21:25:10 145.822/145.860
CUBEBUG 2 30 Aug 21:16:16 21:19:53 23° 67° (ENE) 21:23:40 437.445
RS-15 30 Aug 21:17:03 21:25:48 24° 348° (NNW) 21:34:43 29.354- 29.394
AAUSAT CUBESAT 2 30 Aug 21:18:53 21:22:51 43° 73° (ENE) 21:26:51 437.432
ZACube-1 30 Aug 21:23:06 21:25:52 16° 65° (ENE) 21:28:48 437.345
UWE-3 30 Aug 21:26:06 21:29:38 23° 67° (ENE) 21:33:20 435.000/436.395/437.385
FUNcube-1 30 Aug 21:28:50 21:31:50 18° 65° (ENE) 21:35:00 145.935
GOMX 1 30 Aug 21:39:18 21:43:07 27° 267° (W) 21:47:07 467.674
CUTE 1.7 + AOD 2 30 Aug 21:41:07 21:45:20 54° 261° (W) 21:49:33 437.475
DELFI C3 30 Aug 21:52:42 21:56:11 29° 71° (ENE) 21:59:44 145.870
CANX-2 30 Aug 21:55:18 21:59:14 34° 264° (W) 22:03:09 2200.000
DOVE 4 30 Aug 21:59:00 22:02:58 28° 267° (W) 22:07:06 437.250
STRAND 1 30 Aug 22:02:01 22:05:54 22° 295° (WNW) 22:09:38 437.568
Cosmos 2491 30 Aug 22:03:22 22:11:53 58° 269° (W) 22:20:22 435.465 / 435.565
PRISM 30 Aug 22:07:08 22:09:54 17° 294° (WNW) 22:12:33 437.425
DX 1 30 Aug 22:10:19 22:11:50 12° 62° (ENE) 22:13:34 434.975-435.025
YUBILEINY 30 Aug 22:10:42 22:19:25 75° 94° (E) 22:28:14 435.215
Oscar 11 30 Aug 22:17:09 22:21:31 87° 72° (ENE) 22:25:54 145.826/435.025
HUMSAT D 30 Aug 22:18:04 22:21:25 23° 68° (ENE) 22:24:53 437.325/437.525
SEEDS 30 Aug 22:19:31 22:23:08 26° 266° (W) 22:26:39 437.485
UKube-1 30 Aug 22:24:00 22:26:22 15° 64° (ENE) 22:28:54 .
AISAT 30 Aug 22:27:13 22:28:45 12° 62° (ENE) 22:30:32 437.250
50 SAT 30 Aug 22:41:29 22:43:57 17° 67° (ENE) 22:46:32 437.505
HO-68 30 Aug 22:43:37 22:49:13 23° 269° (W) 22:54:36 435.675
COMPASS 1 30 Aug 22:44:21 22:47:19 18° 269° (W) 22:50:10 437.405
CUBEBUG 2 30 Aug 22:52:02 22:56:21 38° 264° (W) 23:00:45 437.445
VELOX 1 30 Aug 22:53:53 22:57:09 21° 67° (ENE) 23:00:32 145.980
CINEMA 3 30 Aug 22:54:42 22:58:00 18° 271° (W) 23:01:14 145.822/145.860
AAUSAT CUBESAT 2 30 Aug 22:56:02 22:58:43 16° 270° (W) 23:01:13 437.432
ZACube-1 30 Aug 22:57:21 23:01:48 54° 261° (W) 23:06:20 437.345
UWE-3 30 Aug 23:01:39 23:05:57 38° 264° (W) 23:10:18 435.000/436.395/437.385
FUNcube-1 30 Aug 23:03:24 23:07:47 48° 261° (W) 23:12:15 145.935
TIGRISAT 30 Aug 23:03:30 23:06:00 15° 89° (E) 23:08:40 435.000
ANTELSAT 30 Aug 23:19:14 23:22:49 23° 92° (E) 23:26:25 437.575/2403.000
DELFI C3 30 Aug 23:28:02 23:31:16 22° 266° (W) 23:34:26 145.870
BEESAT 3 30 Aug 23:30:59 23:32:58 13° 38° (NE) 23:35:02 437.485
RS-15 30 Aug 23:33:55 23:43:23 28° 22° (NNE) 23:53:21 29.354- 29.394
BEESAT 2 30 Aug 23:41:16 23:43:12 13° 38° (NE) 23:45:13 435.950
ESTCUBE 1 30 Aug 23:42:46 23:47:06 51° 73° (ENE) 23:51:29 437.505/2401.250
DX 1 30 Aug 23:43:14 23:47:33 71° 258° (WSW) 23:51:54 434.975-435.025
HUMSAT D 30 Aug 23:53:04 23:56:59 33° 264° (W) 00:00:54 437.325/437.525
Cosmos 2504 30 Aug 23:55:20 00:02:58 49° 89° (E) 00:11:07 435.465 / 435.565
POLYITAN 1 30 Aug 23:57:11 00:00:23 20° 93° (E) 00:03:39 437.675
UKube-1 30 Aug 23:57:52 00:02:06 54° 260° (W) 00:06:20 .
POPSAT HIP 1 31 Aug 00:00:12 00:03:29 21° 93° (E) 00:06:50 437.405
AISAT 31 Aug 00:00:23 00:04:47 73° 258° (WSW) 00:09:13 437.250
DUCHIFAT 1 31 Aug 00:01:46 00:05:01 21° 93° (E) 00:08:21 145.980
CUBEBUG 1 31 Aug 00:04:45 00:09:02 72° 75° (ENE) 00:13:23 437.445
SPROUT 31 Aug 00:05:54 00:09:14 23° 68° (ENE) 00:12:41 437.525
UNISAT 6 31 Aug 00:09:30 00:14:07 78° 102° (ESE) 00:18:35 437.425
AUBIESAT-1 31 Aug 00:09:41 00:13:28 41° 102° (ESE) 00:16:57 437.475
YUBILEINY 31 Aug 00:10:15 00:17:18 25° 297° (WNW) 00:24:05 435.215
M-CUBED/EXP-1 PRIME 31 Aug 00:13:44 00:17:44 57° 105° (ESE) 00:21:22 437.505
50 SAT 31 Aug 00:14:26 00:18:11 39° 262° (W) 00:21:56 437.505
BUGSAT 1 31 Aug 00:14:50 00:17:47 19° 92° (E) 00:20:52 437.445
QB50P2 31 Aug 00:16:24 00:20:18 33° 96° (E) 00:24:13 145.880/145.840
NANOSAT C BR1 31 Aug 00:18:23 00:22:15 33° 96° (E) 00:26:09 145.865
VELOX 1 31 Aug 00:29:25 00:33:30 37° 263° (W) 00:37:35 145.980
QB50P1 31 Aug 00:31:21 00:35:31 47° 99° (E) 00:39:40 145.935-145.965
TIGRISAT 31 Aug 00:38:40 00:43:11 54° 287° (WNW) 00:47:32 435.000
ANTELSAT 31 Aug 00:55:30 00:59:43 35° 290° (WNW) 01:03:46 437.575/2403.000
ITUPSAT 1 31 Aug 01:01:04 01:01:47 10° 60° (ENE) 01:02:46 437.325
BEESAT 3 31 Aug 01:07:25 01:11:28 82° 238° (WSW) 01:15:26 437.485
CUSAT 1 31 Aug 01:10:16 01:13:59 74° 97° (E) 01:19:02 437.405
TISAT 1 31 Aug 01:13:28 01:17:39 72° 75° (ENE) 01:21:53 437.305
BEESAT 2 31 Aug 01:17:46 01:21:51 86° 238° (WSW) 01:25:51 435.950
ESTCUBE 1 31 Aug 01:21:36 01:24:20 15° 270° (W) 01:26:53 437.505/2401.250
DANDE 31 Aug 01:30:30 01:33:49 71° 96° (E) 01:38:15 436.750
BEESAT 31 Aug 01:31:53 01:35:26 22° 66° (ENE) 01:39:05 436.000
POLYITAN 1 31 Aug 01:32:26 01:36:23 35° 290° (WNW) 01:40:18 437.675
POPSAT HIP 1 31 Aug 01:35:31 01:39:26 34° 290° (WNW) 01:43:17 437.405
Oscar 19 31 Aug 01:36:57 01:37:22 10° 85° (E) 01:38:10 437.125/150
DUCHIFAT 1 31 Aug 01:37:01 01:40:54 33° 290° (WNW) 01:44:44 145.980
SPROUT 31 Aug 01:41:17 01:45:10 32° 264° (W) 01:49:02 437.525
AUBIESAT-1 31 Aug 01:45:17 01:47:50 16° 301° (WNW) 01:50:08 437.475
AIST 2 31 Aug 01:46:20 01:50:18 40° 51° (NE) 01:54:12 435.215
RS-15 31 Aug 01:46:53 01:58:39 68° 51° (NE) 02:10:52 29.354- 29.394
Cosmos 2504 31 Aug 01:47:59 01:55:28 37° 290° (WNW) 02:03:10 435.465 / 435.565
UNISAT 6 31 Aug 01:48:30 01:50:16 12° 299° (WNW) 01:51:48 437.425
BUGSAT 1 31 Aug 01:49:27 01:53:25 38° 289° (WNW) 01:57:22 437.445
SO-50 31 Aug 01:50:01 01:54:25 38° 116° (ESE) 01:58:58 436.795
M-CUBED/EXP-1 PRIME 31 Aug 01:50:03 01:51:59 13° 303° (WNW) 01:53:44 437.505
QB50P2 31 Aug 01:52:38 01:56:01 22° 292° (WNW) 01:59:19 145.880/145.840
NANOSAT C BR1 31 Aug 01:54:32 01:57:55 22° 293° (WNW) 02:01:11 145.865
SWISSCUBE 31 Aug 01:56:39 02:01:04 40° 70° (ENE) 02:05:32 437.505
PCSat 31 Aug 02:08:08 02:12:25 25° 109° (ESE) 02:16:51 145.827
QB50P1 31 Aug 02:08:15 02:11:02 16° 295° (WNW) 02:13:39 145.935-145.965
ITUPSAT 1 31 Aug 02:34:13 02:39:00 85° 75° (ENE) 02:43:48 437.325
STARS 31 Aug 02:46:18 02:47:47 12° 62° (ENE) 02:49:30 437.465
CUSAT 1 31 Aug 02:56:50 02:57:51 10° 306° (NW) 02:58:37 437.405
GONETS M04 31 Aug 02:59:05 03:06:36 36° 86° (E) 03:14:22
KKS-1 31 Aug 02:59:49 03:03:31 27° 68° (ENE) 03:07:16 437.445
JAS-2 31 Aug 03:04:56 03:08:13 14° 81° (E) 03:11:44 435.910
BEESAT 31 Aug 03:08:29 03:13:01 42° 261° (W) 03:17:33 436.000
Oscar 19 31 Aug 03:12:21 03:17:36 88° 101° (E) 03:22:48 437.125/150
AIST 2 31 Aug 03:25:29 03:28:37 20° 247° (WSW) 03:31:37 435.215
SO-50 31 Aug 03:30:44 03:35:03 31° 315° (NW) 03:39:25 436.795
SWISSCUBE 31 Aug 03:35:21 03:39:05 22° 267° (W) 03:42:43 437.505
Gurwin Techsat 1B 31 Aug 03:45:06 03:50:20 56° 100° (E) 03:55:33 435.225
PCSat 31 Aug 03:50:22 03:55:35 47° 306° (NW) 04:00:50 145.827
RS-15 31 Aug 03:59:59 04:10:40 39° 252° (WSW) 04:21:19 29.354- 29.394
ITAMSAT 1 31 Aug 04:08:56 04:14:09 76° 104° (ESE) 04:19:20 435.822/435.867
STARS 31 Aug 04:19:16 04:23:40 75° 258° (WSW) 04:28:07 437.465
VERMONT LUNAR 31 Aug 04:20:35 04:22:24 15° 153° (SSE) 04:24:16 437.305
AO-7 31 Aug 04:20:40 04:26:47 23° 91° (E) 04:33:14 29.400- 29.500
Cosmos 2499 31 Aug 04:30:33 04:37:57 37° 86° (E) 04:45:51 435.465 / 435.565
KKS-1 31 Aug 04:36:08 04:40:03 30° 264° (W) 04:43:58 437.445
MOZHAYETS 4 31 Aug 04:40:49 04:45:11 43° 72° (ENE) 04:49:33
JAS-2 31 Aug 04:47:27 04:54:39 89° 102° (ESE) 05:00:55 435.910
Oscar 19 31 Aug 04:53:53 04:56:17 13° 300° (WNW) 04:58:26 437.125/150
GONETS M04 31 Aug 04:54:51 05:03:15 50° 286° (WNW) 05:11:39
O/OREOS (USA 219) 31 Aug 05:18:09 05:22:22 35° 60° (ENE) 05:26:35 437.305
Gurwin Techsat 1B 31 Aug 05:26:04 05:29:56 20° 297° (WNW) 05:33:38 435.225
HORYU 2 31 Aug 05:37:35 05:42:04 79° 103° (ESE) 05:46:31 437.375
PCSat 31 Aug 05:39:32 05:40:30 10° 328° (NNW) 05:41:16 145.827
ITAMSAT 1 31 Aug 05:50:08 05:53:05 15° 299° (WNW) 05:55:49 435.822/435.867
VERMONT LUNAR 31 Aug 05:55:33 05:58:27 48° 168° (SSE) 06:01:21 437.305
AO-7 31 Aug 06:12:12 06:20:30 76° 291° (WNW) 06:28:44 29.400- 29.500
MOZHAYETS 4 31 Aug 06:19:16 06:22:38 19° 269° (W) 06:25:51
PHONESAT 2.4 31 Aug 06:22:21 06:24:23 15° 151° (SSE) 06:26:28 2401.200-2431.200
Cosmos 2499 31 Aug 06:22:41 06:30:54 51° 286° (WNW) 06:39:27 435.465 / 435.565
CUTE-I 31 Aug 06:29:05 06:30:07 11° 86° (E) 06:31:33 437.470
CUBESAT XI-V 31 Aug 06:31:56 06:36:24 55° 74° (ENE) 06:40:55 437.345
JAS-2 31 Aug 06:34:02 06:38:41 18° 304° (NW) 06:42:49 435.910
O/OREOS (USA 219) 31 Aug 06:57:54 07:01:38 24° 257° (WSW) 07:05:15 437.305
HORYU 2 31 Aug 07:16:36 07:18:07 11° 299° (WNW) 07:19:25 437.375
Cubesat XI-IV 31 Aug 07:20:47 07:25:38 35° 96° (E) 07:30:30 437.490
PRISM 31 Aug 07:21:15 07:24:51 31° 70° (ENE) 07:28:31 437.425
VERMONT LUNAR 31 Aug 07:31:48 07:34:45 65° 184° (S) 07:37:43 437.305
STRAND 1 31 Aug 07:38:11 07:43:15 73° 75° (ENE) 07:48:22 437.568
PHONESAT 2.4 31 Aug 07:58:32 08:01:49 47° 166° (SSE) 08:05:07 2401.200-2431.200
GOMX 1 31 Aug 08:04:13 08:05:37 11° 85° (E) 08:07:25 467.674
CUTE-I 31 Aug 08:05:43 08:11:05 89° 104° (ESE) 08:16:25 437.470
AO-7 31 Aug 08:06:45 08:12:07 19° 310° (NW) 08:17:08 29.400- 29.500
CUBESAT XI-V 31 Aug 08:11:33 08:14:16 15° 271° (W) 08:16:46 437.345
YUBILEINY 31 Aug 08:20:47 08:28:48 38° 70° (ENE) 08:36:53 435.215
HO-68 31 Aug 08:25:36 08:26:26 10° 83° (E) 08:27:55 435.675
PRISM 31 Aug 08:57:12 09:00:22 21° 266° (W) 09:03:26 437.425
Cubesat XI-IV 31 Aug 09:01:01 09:05:40 31° 293° (WNW) 09:10:14 437.490
BRITE-PL 31 Aug 09:06:08 09:11:38 71° 101° (E) 09:17:19 437.365/2234.400
AIST 1 31 Aug 09:07:16 09:11:30 76° 96° (E) 09:15:46
VERMONT LUNAR 31 Aug 09:08:19 09:10:58 29° 200° (SSW) 09:13:37 437.305
Cosmos 2491 31 Aug 09:09:01 09:16:32 36° 86° (E) 09:24:15 435.465 / 435.565
CINEMA 3 31 Aug 09:12:30 09:14:32 13° 86° (E) 09:16:50 145.822/145.860
STRAND 1 31 Aug 09:20:34 09:23:06 13° 272° (W) 09:25:21 437.568
CUTE 1.7 + AOD 2 31 Aug 09:26:24 09:29:49 24° 93° (E) 09:33:17 437.475
M-CUBED/EXP-1 PRIME 31 Aug 09:29:43 09:31:13 12° 56° (NE) 09:32:56 437.505
PHONESAT 2.4 31 Aug 09:36:11 09:39:34 70° 182° (S) 09:42:58 2401.200-2431.200
GOMX 1 31 Aug 09:39:05 09:44:33 86° 100° (E) 09:50:05 467.674
CANX-2 31 Aug 09:39:55 09:43:52 38° 97° (E) 09:47:48 2200.000
Cosmos 2504 31 Aug 09:42:54 09:47:49 17° 57° (ENE) 09:53:01 435.465 / 435.565
CUTE-I 31 Aug 09:47:58 09:50:29 13° 301° (WNW) 09:52:44 437.470
DOVE 4 31 Aug 09:56:23 10:01:45 79° 102° (ESE) 10:07:02 437.250
ISS 31 Aug 09:57:51 10:00:59 51° 141° (SE) 10:04:09 145.825
SEEDS 31 Aug 10:02:38 10:06:42 48° 99° (E) 10:10:45 437.485
TIGRISAT 31 Aug 10:02:43 10:05:25 16° 64° (ENE) 10:08:18 435.000
CUSAT 1 31 Aug 10:03:22 10:07:17 15° 58° (ENE) 10:11:52 437.405
Oscar 11 31 Aug 10:05:29 10:07:57 15° 90° (E) 10:10:36 145.826/435.025
HO-68 31 Aug 10:08:30 10:15:42 68° 103° (ESE) 10:22:52 435.675
YUBILEINY 31 Aug 10:17:29 10:25:55 49° 270° (W) 10:34:10 435.215
ANTELSAT 31 Aug 10:18:27 10:22:04 23° 67° (ENE) 10:25:49 437.575/2403.000
SO-50 31 Aug 10:21:00 10:25:40 40° 49° (NE) 10:30:15 436.795
COMPASS 1 31 Aug 10:25:41 10:29:50 71° 100° (E) 10:33:57 437.405
DANDE 31 Aug 10:25:49 10:29:43 15° 60° (ENE) 10:34:22 436.750
AAUSAT CUBESAT 2 31 Aug 10:36:31 10:40:40 79° 101° (E) 10:44:47 437.432
CUBEBUG 2 31 Aug 10:42:36 10:47:08 46° 98° (E) 10:51:31 437.445
BRITE-PL 31 Aug 10:45:59 10:49:39 18° 296° (WNW) 10:53:12 437.365/2234.400
ZACube-1 31 Aug 10:46:04 10:49:57 28° 94° (E) 10:53:48 437.345
CINEMA 3 31 Aug 10:47:21 10:52:23 74° 285° (WNW) 10:57:16 145.822/145.860
POLYITAN 1 31 Aug 10:51:02 10:53:46 17° 66° (ENE) 10:56:39 437.675
UWE-3 31 Aug 10:51:05 10:55:28 43° 97° (E) 10:59:45 435.000/436.395/437.385
FUNcube-1 31 Aug 10:51:42 10:55:42 31° 95° (E) 10:59:39 145.935
POPSAT HIP 1 31 Aug 10:53:49 10:56:38 18° 66° (ENE) 10:59:35 437.405
PCSat 31 Aug 10:54:52 10:59:17 25° 46° (NE) 11:03:47 145.827
DUCHIFAT 1 31 Aug 10:54:57 10:57:42 18° 66° (ENE) 11:00:36 145.980
AUBIESAT-1 31 Aug 10:55:59 11:00:41 64° 69° (ENE) 11:05:19 437.475
M-CUBED/EXP-1 PRIME 31 Aug 11:00:31 11:05:20 83° 70° (ENE) 11:10:06 437.505
CUTE 1.7 + AOD 2 31 Aug 11:02:04 11:05:45 28° 290° (WNW) 11:09:20 437.475
Cosmos 2491 31 Aug 11:04:46 11:13:11 51° 286° (WNW) 11:21:36 435.465 / 435.565
DELFI C3 31 Aug 11:05:34 11:09:25 44° 98° (E) 11:13:14 145.870
BUGSAT 1 31 Aug 11:06:14 11:08:19 14° 65° (ENE) 11:10:33 437.445
UNISAT 6 31 Aug 11:08:10 11:12:49 72° 76° (ENE) 11:17:33 437.425
QB50P2 31 Aug 11:09:46 11:13:20 27° 69° (ENE) 11:16:58 145.880/145.840
NANOSAT C BR1 31 Aug 11:11:20 11:14:51 26° 69° (ENE) 11:18:29 145.865
PHONESAT 2.4 31 Aug 11:14:05 11:17:16 37° 199° (SSW) 11:20:27 2401.200-2431.200
CANX-2 31 Aug 11:16:30 11:19:33 19° 293° (WNW) 11:22:28 2200.000
GOMX 1 31 Aug 11:19:04 11:22:02 15° 298° (WNW) 11:24:47 467.674
QB50P1 31 Aug 11:24:19 11:28:12 37° 71° (ENE) 11:32:10 145.935-145.965
DX 1 31 Aug 11:32:01 11:35:05 19° 92° (E) 11:38:18 434.975-435.025
Cosmos 2504 31 Aug 11:33:11 11:41:46 80° 82° (E) 11:49:49 435.465 / 435.565
ISS 31 Aug 11:34:43 11:37:32 26° 338° (NNW) 11:40:21 145.825
DOVE 4 31 Aug 11:35:48 11:38:53 15° 298° (WNW) 11:41:43 437.250
HUMSAT D 31 Aug 11:36:24 11:40:22 37° 97° (E) 11:44:17 437.325/437.525
TIGRISAT 31 Aug 11:37:05 11:41:42 61° 260° (W) 11:46:24 435.000
ESTCUBE 1 31 Aug 11:38:04 11:38:33 10° 87° (E) 11:39:20 437.505/2401.250
SEEDS 31 Aug 11:39:38 11:42:07 15° 295° (WNW) 11:44:27 437.485
Oscar 11 31 Aug 11:40:18 11:44:28 47° 287° (WNW) 11:48:35 145.826/435.025
CUSAT 1 31 Aug 11:43:33 11:51:14 68° 77° (ENE) 11:59:28 437.405
UKube-1 31 Aug 11:45:21 11:48:49 23° 94° (E) 11:52:21 .
50 SAT 31 Aug 11:49:32 11:52:27 21° 93° (E) 11:55:26 437.505
AISAT 31 Aug 11:51:19 11:54:38 21° 93° (E) 11:58:05 437.250
ANTELSAT 31 Aug 11:54:14 11:58:38 39° 263° (W) 12:03:03 437.575/2403.000
CUBEBUG 1 31 Aug 11:54:51 11:56:52 13° 89° (E) 11:59:08 437.445
HO-68 31 Aug 11:57:11 12:02:55 26° 301° (WNW) 12:08:26 435.675
SO-50 31 Aug 12:01:52 12:06:04 28° 247° (WSW) 12:10:06 436.795
COMPASS 1 31 Aug 12:03:49 12:04:58 11° 297° (WNW) 12:05:55 437.405
DANDE 31 Aug 12:06:35 12:14:02 70° 78° (ENE) 12:22:32 436.750
VELOX 1 31 Aug 12:19:06 12:23:17 39° 98° (E) 12:27:29 145.980
CUBEBUG 2 31 Aug 12:20:03 12:23:28 20° 295° (WNW) 12:26:42 437.445
ZACube-1 31 Aug 12:22:22 12:26:15 27° 291° (WNW) 12:29:57 437.345
POLYITAN 1 31 Aug 12:25:15 12:29:21 44° 262° (W) 12:33:29 437.675
POPSAT HIP 1 31 Aug 12:28:09 12:32:12 42° 262° (W) 12:36:17 437.405
FUNcube-1 31 Aug 12:28:11 12:31:53 25° 292° (WNW) 12:35:27 145.935
UWE-3 31 Aug 12:28:19 12:31:41 20° 294° (WNW) 12:34:53 435.000/436.395/437.385
DUCHIFAT 1 31 Aug 12:29:10 12:33:12 42° 262° (W) 12:37:16 145.980
AUBIESAT-1 31 Aug 12:33:00 12:35:46 15° 266° (W) 12:38:18 437.475
PCSat 31 Aug 12:37:46 12:43:04 54° 246° (WSW) 12:48:20 145.827
M-CUBED/EXP-1 PRIME 31 Aug 12:38:57 12:40:41 11° 268° (W) 12:42:05 437.505
BUGSAT 1 31 Aug 12:39:25 12:43:22 51° 260° (W) 12:47:24 437.445
DELFI C3 31 Aug 12:41:47 12:44:08 15° 294° (WNW) 12:46:20 145.870
QB50P2 31 Aug 12:45:31 12:49:10 27° 265° (W) 12:52:47 145.880/145.840
NANOSAT C BR1 31 Aug 12:47:00 12:50:38 27° 265° (W) 12:54:15 145.865
UNISAT 6 31 Aug 12:48:16 12:50:11 12° 273° (W) 12:51:51 437.425
Oscar 19 31 Aug 12:52:30 12:55:48 18° 63° (ENE) 12:59:15 437.125/150
PHONESAT 2.4 31 Aug 12:53:56 12:54:36 10° 213° (SSW) 12:55:10 2401.200-2431.200
TISAT 1 31 Aug 12:59:54 13:01:02 11° 88° (E) 13:02:25 437.305
QB50P1 31 Aug 13:01:06 13:04:13 19° 268° (W) 13:07:14 145.935-145.965
DX 1 31 Aug 13:07:25 13:11:32 39° 289° (WNW) 13:15:36 434.975-435.025
GONETS M04 31 Aug 13:08:58 13:14:25 18° 58° (ENE) 13:20:18
ESTCUBE 1 31 Aug 13:11:32 13:16:02 75° 285° (WNW) 13:20:31 437.505/2401.250
HUMSAT D 31 Aug 13:12:46 13:15:51 19° 293° (WNW) 13:18:47 437.325/437.525
ISS 31 Aug 13:12:47 13:14:44 15° 358° (N) 13:16:40 145.825
UKube-1 31 Aug 13:21:07 13:24:59 31° 291° (WNW) 13:28:47 .
JAS-2 31 Aug 13:21:21 13:21:31 10° 49° (NE) 13:22:12 435.910
50 SAT 31 Aug 13:23:39 13:27:01 28° 290° (WNW) 13:30:17 437.505
CUSAT 1 31 Aug 13:26:57 13:33:24 28° 272° (W) 13:39:55 437.405
Cosmos 2504 31 Aug 13:26:58 13:33:02 21° 280° (W) 13:38:31 435.465 / 435.565
SPROUT 31 Aug 13:27:02 13:31:09 41° 98° (E) 13:35:16 437.525
AISAT 31 Aug 13:27:12 13:31:21 38° 290° (WNW) 13:35:29 437.250
CUBEBUG 1 31 Aug 13:29:19 13:33:39 58° 286° (WNW) 13:38:00 437.445
Gurwin Techsat 1B 31 Aug 13:30:19 13:32:31 13° 60° (ENE) 13:34:59 435.225
ITAMSAT 1 31 Aug 13:50:31 13:53:30 16° 62° (ENE) 13:56:40 435.822/435.867
DANDE 31 Aug 13:50:37 13:56:51 27° 272° (W) 14:03:23 436.750
VELOX 1 31 Aug 13:56:13 13:59:36 21° 294° (WNW) 14:02:53 145.980
Cosmos 2499 31 Aug 14:23:10 14:26:50 14° 53° (NE) 14:30:59 435.465 / 435.565
Oscar 19 31 Aug 14:29:35 14:34:42 63° 259° (W) 14:39:51 437.125/150
TISAT 1 31 Aug 14:33:03 14:37:18 65° 286° (WNW) 14:41:31 437.305
ITUPSAT 1 31 Aug 14:35:14 14:38:47 21° 92° (E) 14:42:27 437.325
ISS 31 Aug 14:49:21 14:51:59 22° 18° (NNE) 14:54:38 145.825
JAS-2 31 Aug 14:57:39 15:04:51 46° 68° (ENE) 15:12:17 435.910
BEESAT 3 31 Aug 15:01:21 15:03:47 16° 112° (ESE) 15:06:22 437.485
SPROUT 31 Aug 15:03:51 15:06:57 19° 294° (WNW) 15:09:56 437.525
GONETS M04 31 Aug 15:04:02 15:12:53 84° 82° (E) 15:21:45
Gurwin Techsat 1B 31 Aug 15:06:30 15:11:49 90° 181° (S) 15:17:11 435.225
BEESAT 31 Aug 15:08:04 15:12:38 46° 99° (E) 15:17:13 436.000
BEESAT 2 31 Aug 15:12:43 15:15:10 16° 111° (ESE) 15:17:45 435.950
AO-7 31 Aug 15:19:53 15:27:08 36° 60° (ENE) 15:34:33 29.400- 29.500
ITAMSAT 1 31 Aug 15:27:20 15:32:29 70° 258° (WSW) 15:37:41 435.822/435.867
SWISSCUBE 31 Aug 15:33:50 15:38:37 88° 279° (W) 15:43:23 437.505
STARS 31 Aug 16:09:26 16:12:36 20° 92° (E) 16:15:54 437.465
RS-15 31 Aug 16:12:04 16:21:34 38° 108° (ESE) 16:31:37 29.354- 29.394
ITUPSAT 1 31 Aug 16:12:24 16:16:53 41° 290° (WNW) 16:21:19 437.325
Cosmos 2499 31 Aug 16:13:35 16:22:15 66° 78° (ENE) 16:30:21 435.465 / 435.565
ISS 31 Aug 16:25:25 16:28:39 75° 218° (SW) 16:31:53 145.825
KKS-1 31 Aug 16:26:09 16:30:32 50° 99° (E) 16:34:54 437.445
HORYU 2 31 Aug 16:35:47 16:40:16 76° 74° (ENE) 16:44:48 437.375
BEESAT 3 31 Aug 16:37:25 16:41:23 48° 308° (NW) 16:45:20 437.485
JAS-2 31 Aug 16:42:46 16:49:56 41° 266° (W) 16:57:13 435.910
BEESAT 31 Aug 16:46:41 16:50:11 20° 295° (WNW) 16:53:33 436.000
BEESAT 2 31 Aug 16:48:52 16:52:51 49° 307° (NW) 16:56:52 435.950
Gurwin Techsat 1B 31 Aug 16:51:12 16:52:40 11° 274° (W) 16:53:46 435.225
GONETS M04 31 Aug 17:02:42 17:08:47 20° 280° (W) 17:14:26
AO-7 31 Aug 17:11:29 17:19:40 56° 258° (WSW) 17:27:50 29.400- 29.500
SWISSCUBE 31 Aug 17:14:35 17:15:48 11° 300° (WNW) 17:16:46 437.505
AIST 2 31 Aug 17:22:13 17:26:27 76° 121° (ESE) 17:30:42 435.215
STARS 31 Aug 17:45:03 17:49:14 39° 289° (WNW) 17:53:21 437.465
CUTE-I 31 Aug 17:49:54 17:53:41 21° 64° (ENE) 17:57:37 437.470
KKS-1 31 Aug 18:03:49 18:06:48 17° 295° (WNW) 18:09:38 437.445
Cosmos 2499 31 Aug 18:07:48 18:14:45 27° 278° (W) 18:21:06 435.465 / 435.565
MOZHAYETS 4 31 Aug 18:12:19 18:16:55 82° 283° (WNW) 18:21:27
HORYU 2 31 Aug 18:16:39 18:17:32 10° 273° (W) 18:18:07 437.375
RS-15 31 Aug 18:22:33 18:33:26 64° 311° (NW) 18:44:47 29.354- 29.394
CUBESAT XI-V 31 Aug 18:29:49 18:31:59 13° 88° (E) 18:34:24 437.345
Cubesat XI-IV 31 Aug 18:43:03 18:48:16 60° 73° (ENE) 18:53:32 437.490
HO-68 31 Aug 18:56:38 18:57:43 11° 48° (NE) 18:59:14 435.675
AIST 2 31 Aug 19:02:57 19:05:33 15° 321° (NW) 19:08:03 435.215
GOMX 1 31 Aug 19:13:51 19:14:52 11° 59° (ENE) 19:16:09 467.674
AIST 1 31 Aug 19:14:40 19:17:46 19° 71° (ENE) 19:21:00
Cosmos 2491 31 Aug 19:19:04 19:24:23 18° 58° (ENE) 19:30:09 435.465 / 435.565
CUTE-I 31 Aug 19:28:12 19:33:24 54° 260° (W) 19:38:38 437.470
O/OREOS (USA 219) 31 Aug 19:30:43 19:34:51 36° 106° (ESE) 19:39:04 437.305
STRAND 1 31 Aug 19:48:59 19:53:00 24° 93° (E) 19:57:08 437.568
